When you browse on this site, cookies collect data to enhance your experience and personalize the content and advertising you see.
Visit our Privacy Policy to learn more. By continuing to use the site, you agree to this use of cookies and data.
  • In Deutschland
  • Länderverzeichnis
  • Für 7 Tage
  • Wassertemperatur
  • Wetterkarte
  • Widgets
  • user-avatar
    Anmelden

    Stündliche Wetter Tarin Kowt

    Heute, 19 September, Donnerstag

    Zeit Temperatur Niederschläge Wind Luftdruck Luftfeuchtigkeit
    00:00 +15°C° 0 mm 1 m/S 617 mmHg 12%
    01:00 +15°C° 0 mm 1 m/S 616 mmHg 12%
    02:00 +15°C° 0 mm 1 m/S 616 mmHg 15%
    03:00 +14°C° 0 mm 1 m/S 616 mmHg 17%
    04:00 +14°C° 0 mm 1 m/S 616 mmHg 19%
    05:00 +17°C° 0 mm 2 m/S 617 mmHg 15%
    06:00 +19°C° 0 mm 2 m/S 619 mmHg 11%
    07:00 +21°C° 0 mm 2 m/S 620 mmHg 7%
    08:00 +24°C° 0 mm 2 m/S 621 mmHg 7%
    09:00 +27°C° 0 mm 2 m/S 621 mmHg 6%
    10:00 +29°C° 0 mm 2 m/S 622 mmHg 5%
    11:00 +30°C° 0 mm 2 m/S 621 mmHg 4%
    12:00 +31°C° 0 mm 1 m/S 621 mmHg 4%
    13:00 +33°C° 0 mm 1 m/S 621 mmHg 3%
    14:00 +34°C° 0 mm 2 m/S 621 mmHg 3%
    15:00 +34°C° 0 mm 3 m/S 620 mmHg 3%
    16:00 +34°C° 0 mm 3 m/S 620 mmHg 3%
    17:00 +29°C° 0 mm 3 m/S 619 mmHg 4%
    18:00 +25°C° 0 mm 3 m/S 618 mmHg 5%
    19:00 +21°C° 0 mm 2 m/S 617 mmHg 6%
    20:00 +19°C° 0 mm 2 m/S 617 mmHg 7%
    21:00 +19°C° 0 mm 1 m/S 617 mmHg 7%
    22:00 +18°C° 0 mm 1 m/S 616 mmHg 8%
    23:00 +18°C° 0 mm 1 m/S 616 mmHg 8%

    Morgen, 20 September, Freitag

    Zeit Temperatur Niederschläge Wind Luftdruck Luftfeuchtigkeit
    00:00 +16°C° 0 mm 1 m/S 616 mmHg 9%
    01:00 +16°C° 0 mm 1 m/S 616 mmHg 9%
    02:00 +16°C° 0 mm 1 m/S 615 mmHg 10%
    03:00 +16°C° 0 mm 1 m/S 615 mmHg 11%
    04:00 +15°C° 0 mm 2 m/S 615 mmHg 12%
    05:00 +18°C° 0 mm 2 m/S 617 mmHg 11%
    06:00 +20°C° 0 mm 2 m/S 618 mmHg 10%
    07:00 +23°C° 0 mm 2 m/S 619 mmHg 8%
    08:00 +25°C° 0 mm 2 m/S 619 mmHg 8%
    09:00 +27°C° 0 mm 2 m/S 620 mmHg 7%
    10:00 +29°C° 0 mm 2 m/S 621 mmHg 7%
    11:00 +30°C° 0 mm 2 m/S 620 mmHg 6%
    12:00 +31°C° 0 mm 2 m/S 620 mmHg 6%
    13:00 +32°C° 0 mm 2 m/S 620 mmHg 5%
    14:00 +32°C° 0 mm 2 m/S 620 mmHg 5%
    15:00 +32°C° 0 mm 2 m/S 619 mmHg 5%
    16:00 +33°C° 0 mm 3 m/S 619 mmHg 5%
    17:00 +29°C° 0 mm 2 m/S 618 mmHg 7%
    18:00 +25°C° 0 mm 2 m/S 617 mmHg 8%
    19:00 +21°C° 0 mm 1 m/S 616 mmHg 10%
    20:00 +20°C° 0 mm 1 m/S 615 mmHg 10%
    21:00 +19°C° 0 mm 1 m/S 615 mmHg 11%
    22:00 +19°C° 0 mm 1 m/S 615 mmHg 11%
    23:00 +18°C° 0 mm 1 m/S 615 mmHg 12%

    übermorgen, 21 September, Samstag

    Zeit Temperatur Niederschläge Wind Luftdruck Luftfeuchtigkeit
    00:00 +18°C° 0 mm 1 m/S 615 mmHg 12%
    01:00 +18°C° 0 mm 1 m/S 615 mmHg 12%
    02:00 +16°C° 0 mm 1 m/S 615 mmHg 13%
    03:00 +16°C° 0 mm 1 m/S 615 mmHg 14%
    04:00 +16°C° 0 mm 2 m/S 615 mmHg 15%
    05:00 +18°C° 0 mm 2 m/S 616 mmHg 14%
    06:00 +20°C° 0 mm 2 m/S 617 mmHg 12%
    07:00 +23°C° 0 mm 2 m/S 618 mmHg 11%
    08:00 +25°C° 0 mm 2 m/S 619 mmHg 10%
    09:00 +28°C° 0 mm 2 m/S 619 mmHg 9%
    10:00 +30°C° 0 mm 2 m/S 620 mmHg 7%
    11:00 +31°C° 0 mm 2 m/S 620 mmHg 7%
    12:00 +33°C° 0 mm 3 m/S 620 mmHg 6%
    13:00 +34°C° 0 mm 3 m/S 620 mmHg 5%
    14:00 +34°C° 0 mm 3 m/S 619 mmHg 5%
    15:00 +34°C° 0 mm 3 m/S 619 mmHg 5%
    16:00 +34°C° 0 mm 4 m/S 619 mmHg 5%
    17:00 +29°C° 0 mm 3 m/S 618 mmHg 7%
    18:00 +25°C° 0 mm 2 m/S 617 mmHg 8%
    19:00 +21°C° 0 mm 1 m/S 616 mmHg 10%
    20:00 +21°C° 0 mm 1 m/S 616 mmHg 10%
    21:00 +20°C° 0 mm 1 m/S 616 mmHg 11%
    22:00 +19°C° 0 mm 1 m/S 616 mmHg 11%
    23:00 +19°C° 0 mm 1 m/S 615 mmHg 12%

    22 September, Sonntag

    Zeit Temperatur Niederschläge Wind Luftdruck Luftfeuchtigkeit
    00:00 +18°C° 0 mm 1 m/S 615 mmHg 12%
    01:00 +16°C° 0 mm 0 m/S 615 mmHg 13%
    02:00 +16°C° 0 mm 1 m/S 615 mmHg 16%
    03:00 +16°C° 0 mm 1 m/S 615 mmHg 19%
    04:00 +16°C° 0 mm 1 m/S 615 mmHg 21%
    05:00 +20°C° 0 mm 1 m/S 616 mmHg 17%
    06:00 +22°C° 0 mm 1 m/S 618 mmHg 13%
    07:00 +25°C° 0 mm 1 m/S 619 mmHg 9%
    08:00 +27°C° 0 mm 1 m/S 620 mmHg 8%
    09:00 +29°C° 0 mm 1 m/S 621 mmHg 7%
    10:00 +31°C° 0 mm 1 m/S 621 mmHg 6%
    11:00 +32°C° 0 mm 2 m/S 621 mmHg 5%
    12:00 +34°C° 0 mm 2 m/S 621 mmHg 5%
    13:00 +35°C° 0 mm 3 m/S 620 mmHg 5%
    14:00 +35°C° 0 mm 3 m/S 620 mmHg 5%
    15:00 +35°C° 0 mm 4 m/S 620 mmHg 5%
    16:00 +35°C° 0 mm 4 m/S 619 mmHg 5%
    17:00 +30°C° 0 mm 4 m/S 619 mmHg 6%
    18:00 +27°C° 0 mm 3 m/S 618 mmHg 8%
    19:00 +23°C° 0 mm 2 m/S 617 mmHg 10%
    20:00 +21°C° 0 mm 2 m/S 617 mmHg 10%
    21:00 +21°C° 0 mm 1 m/S 617 mmHg 11%
    22:00 +20°C° 0 mm 1 m/S 617 mmHg 12%
    23:00 +19°C° 0 mm 1 m/S 617 mmHg 12%

    23 September, Montag

    Zeit Temperatur Niederschläge Wind Luftdruck Luftfeuchtigkeit
    00:00 +19°C° 0 mm 1 m/S 616 mmHg 13%
    01:00 +19°C° 0 mm 1 m/S 616 mmHg 13%
    02:00 +18°C° 0 mm 1 m/S 616 mmHg 14%
    03:00 +17°C° 0 mm 2 m/S 616 mmHg 16%
    04:00 +16°C° 0 mm 2 m/S 616 mmHg 17%
    05:00 +18°C° 0 mm 2 m/S 617 mmHg 15%
    06:00 +20°C° 0 mm 2 m/S 618 mmHg 13%
    07:00 +23°C° 0 mm 2 m/S 620 mmHg 11%
    08:00 +26°C° 0 mm 2 m/S 620 mmHg 10%
    09:00 +28°C° 0 mm 2 m/S 621 mmHg 8%
    10:00 +31°C° 0 mm 1 m/S 622 mmHg 7%
    11:00 +32°C° 0 mm 2 m/S 621 mmHg 6%
    12:00 +34°C° 0 mm 2 m/S 621 mmHg 5%
    13:00 +35°C° 0 mm 3 m/S 621 mmHg 5%
    14:00 +35°C° 0 mm 3 m/S 621 mmHg 5%
    15:00 +35°C° 0 mm 4 m/S 620 mmHg 5%
    16:00 +35°C° 0 mm 5 m/S 620 mmHg 5%
    17:00 +30°C° 0 mm 4 m/S 619 mmHg 7%
    18:00 +27°C° 0 mm 4 m/S 619 mmHg 10%
    19:00 +24°C° 0 mm 3 m/S 618 mmHg 12%
    20:00 +21°C° 0 mm 2 m/S 618 mmHg 14%
    21:00 +20°C° 0 mm 2 m/S 617 mmHg 16%
    22:00 +20°C° 0 mm 1 m/S 617 mmHg 19%
    23:00 +19°C° 0 mm 1 m/S 617 mmHg 19%

    24 September, Dienstag

    Zeit Temperatur Niederschläge Wind Luftdruck Luftfeuchtigkeit
    00:00 +18°C° 0 mm 1 m/S 616 mmHg 20%
    01:00 +18°C° 0 mm 1 m/S 616 mmHg 21%
    02:00 +18°C° 0 mm 1 m/S 616 mmHg 20%
    03:00 +16°C° 0 mm 1 m/S 616 mmHg 20%
    04:00 +16°C° 0 mm 1 m/S 616 mmHg 20%
    05:00 +20°C° 0 mm 1 m/S 617 mmHg 17%
    06:00 +22°C° 0 mm 1 m/S 618 mmHg 14%
    07:00 +25°C° 0 mm 1 m/S 620 mmHg 12%
    08:00 +27°C° 0 mm 1 m/S 620 mmHg 10%
    09:00 +29°C° 0 mm 1 m/S 621 mmHg 9%
    10:00 +31°C° 0 mm 1 m/S 622 mmHg 7%
    11:00 +32°C° 0 mm 1 m/S 621 mmHg 7%
    12:00 +34°C° 0 mm 2 m/S 621 mmHg 6%
    13:00 +36°C° 0 mm 2 m/S 621 mmHg 5%
    14:00 +36°C° 0 mm 3 m/S 620 mmHg 5%
    15:00 +35°C° 0 mm 4 m/S 620 mmHg 5%
    16:00 +35°C° 0 mm 5 m/S 620 mmHg 6%
    17:00 +32°C° 0 mm 4 m/S 619 mmHg 8%
    18:00 +27°C° 0 mm 3 m/S 618 mmHg 10%
    19:00 +24°C° 0 mm 2 m/S 617 mmHg 13%
    20:00 +21°C° 0 mm 2 m/S 617 mmHg 15%
    21:00 +21°C° 0 mm 1 m/S 617 mmHg 18%
    22:00 +20°C° 0 mm 1 m/S 616 mmHg 21%
    23:00 +19°C° 0 mm 1 m/S 616 mmHg 21%
    Mehr zeigen